Rocky Mount, NC

7:57 AM EDT on September 28, 2016 (GMT -0400)
Rocky Mount-Wilson Regional

Weather History for KRWI - March, 2012

Change the Weather History Date:

Wednesday, March 21, 2012

  Actual Average Record
Temperature  
Mean Temperature 64 °F -  
Max Temperature 73 °F 64 °F 86 °F (1968)
Min Temperature 57 °F 41 °F 24 °F (1965)
Growing Degree Days 14 (Base 50)    
Moisture  
Dew Point 60 °F    
Average Humidity 87    
Maximum Humidity 100    
Minimum Humidity 66    
Precipitation  
Precipitation 0.68 in - - ()
Sea Level Pressure  
Sea Level Pressure 30.26 in    
Wind  
Wind Speed 2 mph (ENE)    
Max Wind Speed 8 mph    
Max Gust Speed 16 mph    
Visibility 8 miles    
Events Rain    
Averages and records for this station are not official NWS values.
T = Trace of Precipitation, MM = Missing Value Source: NWS Daily Summary

Daily Weather History Graph

Daily Weather History Graph

Search for Another Location

Airport or City:

Trip Planner

Search our weather history database for the weather conditions in past years. The results will help you decide how hot, cold, wet, or windy it might be!

Date:

Astronomy

Mar. 21, 2012 Rise Set
Actual Time 7:13 AM EDT 7:24 PM EDT
Civil Twilight 6:47 AM EDT 7:50 PM EDT
Nautical Twilight 6:17 AM EDT 8:20 PM EDT
Astronomical Twilight 5:47 AM EDT 8:50 PM EDT
Moon 6:22 AM EDT (3/21) 6:49 PM EDT (3/21)
Length of Visible Light 13h 02m
Length of Day
12h 11m
Waning Crescent, 1% of the Moon is Illuminated
Mar 21
Waning Crescent
Mar 22
New
Mar 30
First Quarter
Apr 6
Full
Apr 13
Last Quarter

Hourly Weather History & Observations

Time (EDT) Temp. Dew Point Humidity Pressure Visibility Wind Dir Wind Speed Gust Speed Precip Events Conditions
12:53 AM 69.1 °F 60.1 °F 73% 30.24 in 10.0 mi WNW 5.8 mph - N/A   Overcast
1:53 AM 66.9 °F 59.0 °F 76% 30.24 in 10.0 mi Calm Calm - N/A   Mostly Cloudy
2:53 AM 64.0 °F 59.0 °F 84% 30.22 in 10.0 mi Calm Calm - N/A   Clear
3:53 AM 62.1 °F 57.9 °F 86% 30.22 in 10.0 mi Calm Calm - N/A   Mostly Cloudy
4:53 AM 61.0 °F 57.9 °F 90% 30.22 in 10.0 mi Calm Calm - N/A   Scattered Clouds
5:53 AM 61.0 °F 59.0 °F 93% 30.24 in 9.0 mi NE 4.6 mph - N/A   Mostly Cloudy
6:53 AM 60.1 °F 57.9 °F 93% 30.25 in 9.0 mi Calm Calm - N/A   Overcast
7:43 AM 62.6 °F 60.8 °F 94% 30.27 in 1.8 mi NNE 6.9 mph - 0.20 in Rain Heavy Rain
7:53 AM 62.1 °F 60.1 °F 93% 30.27 in 1.0 mi NE 8.1 mph - 0.42 in Rain Heavy Rain
8:15 AM 62.6 °F 60.8 °F 94% 30.28 in 2.5 mi East 4.6 mph - 0.20 in Rain Rain
8:35 AM 62.6 °F 60.8 °F 94% 30.29 in 5.0 mi Calm Calm - 0.25 in Rain Light Rain
8:53 AM 63.0 °F 61.0 °F 93% 30.30 in 7.0 mi Calm Calm - 0.25 in   Overcast
9:53 AM 63.0 °F 61.0 °F 93% 30.30 in 8.0 mi NE 3.5 mph - 0.01 in   Overcast
10:53 AM 64.9 °F 61.0 °F 87% 30.31 in 10.0 mi Calm Calm - N/A   Overcast
11:53 AM 66.9 °F 62.1 °F 84% 30.32 in 10.0 mi Calm Calm - N/A   Overcast
12:53 PM 66.9 °F 63.0 °F 87% 30.30 in 10.0 mi East 3.5 mph - 0.00 in Rain Light Rain
1:53 PM 70.0 °F 61.0 °F 73% 30.29 in 10.0 mi Calm Calm - 0.00 in   Mostly Cloudy
2:53 PM 70.0 °F 63.0 °F 78% 30.25 in 10.0 mi Calm Calm - N/A   Overcast
3:53 PM 72.0 °F 61.0 °F 68% 30.22 in 10.0 mi Calm Calm - 0.00 in   Overcast
4:53 PM 71.1 °F 64.0 °F 78% 30.22 in 10.0 mi Calm Calm - N/A   Overcast
5:53 PM 71.1 °F 59.0 °F 66% 30.23 in 10.0 mi SSE 8.1 mph 16.1 mph N/A   Clear
6:53 PM 70.0 °F 62.1 °F 76% 30.24 in 10.0 mi SSW 5.8 mph - N/A   Partly Cloudy
7:53 PM 66.0 °F 60.1 °F 81% 30.24 in 10.0 mi Calm Calm - N/A   Overcast
8:53 PM 61.0 °F 59.0 °F 93% 30.26 in 10.0 mi Calm Calm - N/A   Clear
9:53 PM 61.0 °F 59.0 °F 93% 30.29 in 8.0 mi Calm Calm - N/A   Overcast
10:53 PM 60.1 °F 59.0 °F 96% 30.29 in 8.0 mi Calm Calm - N/A   Partly Cloudy
11:34 PM 59.0 °F 57.2 °F 94% 30.28 in 1.8 mi Calm Calm - N/A   Clear
11:45 PM 57.2 °F 57.2 °F 100% 30.28 in 0.8 mi Calm Calm - N/A   Clear
11:51 PM 57.2 °F 57.2 °F 100% 30.28 in 2.0 mi Calm Calm - N/A   Clear
11:52 PM 57.9 °F 57.0 °F 97% 30.28 in 2.5 mi Calm Calm - N/A   Clear
11:59 PM 59.0 °F 57.2 °F 94% 30.28 in 5.0 mi Calm Calm - N/A   Clear